1998-067KY

Last updated on Jan. 26, 2017, 12:15 a.m. UTC

1 41936U 98067KY  17025.40972952  .00032382  00000-0  47448-3 0  9994
2 41936  51.6442  30.0230 0008992  98.3959 261.8039 15.55216689   777

Satellite is not in orbit.